STARLINK-4583 (53568 NORAD) Tracking and Keplerian Element Data

This shows tracking and keplerian element data for the satellite.

Feedback or suggestion? Click here.




ElementValue
Catalog53568
NameSTARLINK-4583
Epoch Orbit130
Epoch Day324.91667824
Epoch Year2022
RAAN62.4197
Inclination53.2151
Eccentricity0.0001471
Argument of Perigee50.6394
Mean Anonmoly78.9665
Mean Motion15.08854401
Decay Rate-0.00060289
L11 53568U 22101AT 22324.91667824 -.00060289 00000+0 -38004-2 0 9992
L22 53568 53.2151 62.4197 0001471 50.6394 78.9665 15.08854401 1306



Live tracking and technical data element details for STARLINK-4583 (NORAD 53568). STARLINK-4583 can be tracked NOW for your location showing map with azimuth and elevation plus other details from your city location.







IsCatalogInMostPopularTable: catalog: 53568, numindb: 5
Update: records affected: 1



GetName: 53568 STARLINK-4583

Hit Count: updated at: Tue, 29 Nov 2022 00:30:38 GMT